sat.trackr.live / text

‹ back to catalog

STARLINK-31736

NORAD 59547 · 2024-074P

PAYLOAD ACTIVE UNKNOWN

§ Identity

Operator
Country
US
Launch date
2024-04-18
Launch site
AFETR
Launch vehicle
Mass (kg)
RCS (m²)

Purposes: comms

External: N2YO · Heavens-Above · Gunter

§ Orbital elements

Epoch: 2026-09-21T10:48:10.826784Z

Period
94.27 min
Inclination
43.0035°
Eccentricity
0.0001182
Mean motion
15.27594238 rev/d
Perigee alt
482.2 km
Apogee alt
483.8 km
Semi-major
6,861.1 km
B*
8.2791e-5
RAAN
311.0162°
Arg perigee
278.8009°
Mean anomaly
81.2709°
Rev number
13,603

§ Raw data

STARLINK-317361 59547U 24074P   26264.45012531  .00002018  00000+0  82791-4 0  99992 59547  43.0035 311.0162 0001182 278.8009  81.2709 15.27594238136033

JSON: /api/v1/satellites/59547 · /tle

For live sub-satellite position, see the globe view (requires WebGL).

§ Visibility from observer

Set your observer location to see the next 7 days of passes ≥ 10°. The values pass through the URL so the page stays shareable.

No JS? Fill the form by hand. The geolocation button needs JavaScript.